Wind from 052 at 1 knots gusting 4

Air temperature 13.3° C
Dewpoint 13.2° C

Last reported at 2014-Apr-20 09:45 UTC.
Time now 2014-Apr-21 04:53 UTC

Location: N 39°11' W 008°44'.
View on Google Maps.

See reports from other nearby stations

Tides Stations Pressure Air Temp Water Temp Dewpoint Dewpoint depression Visibility Wind Speed Wind Dir Waves Ship positions

  
sailing weather and tide predictions

CT1AKV-10 Estrada Real PT weather

date/time (UTC)wind fromknots sea level pressurealtimeterstation pressurevisibilityair tempwater tempwave heightnotes
2014-Apr-20 09:45 052 1 gusting 4 13.3
2014-Apr-20 09:30 053 1 gusting 5 12.8
2014-Apr-20 09:00 049 0 gusting 3 12.8
2014-Apr-20 08:30 045 0 gusting 3 11.7
2014-Apr-20 08:15 030 0 gusting 3 11.7
2014-Apr-20 07:30 11.1
2014-Apr-20 07:15 11.1
2014-Apr-20 07:00 233 11.1
2014-Apr-20 06:15 021 0 gusting 2 11.1
2014-Apr-20 06:00 035 0 gusting 2 11.1
2014-Apr-20 05:45 042 10.6
2014-Apr-20 05:30 046 10.6
2014-Apr-20 05:15 10.6
2014-Apr-20 05:00 049 0 gusting 2 10.6
2014-Apr-20 04:15 033 11.1
2014-Apr-20 04:00 11.1
2014-Apr-20 03:45 11.1
2014-Apr-20 03:30 11.1
2014-Apr-20 03:15 11.1
2014-Apr-20 03:00 11.1
2014-Apr-20 02:45 11.1
2014-Apr-20 02:30 10.6
2014-Apr-20 02:15 10.6
2014-Apr-20 02:00 10.6
2014-Apr-20 01:45 10.0
2014-Apr-20 01:30 10.6
2014-Apr-20 01:15 10.6
2014-Apr-20 01:00 10.0
2014-Apr-20 00:45 10.0
2014-Apr-20 00:30 10.0
2014-Apr-20 00:15 10.0
2014-Apr-20 00:00 10.6
2014-Apr-19 23:45 10.6
2014-Apr-19 23:30 225 10.6
2014-Apr-19 23:15 10.6
2014-Apr-19 23:00 11.1
2014-Apr-19 22:45 11.1
2014-Apr-19 22:15 264 11.7
2014-Apr-19 22:00 279 12.2
2014-Apr-19 21:45 268 0 gusting 4 12.2
2014-Apr-19 21:30 239 12.2
2014-Apr-19 21:15 242 0 gusting 3 12.8
2014-Apr-19 20:45 281 0 gusting 3 13.3
2014-Apr-19 20:30 305 0 gusting 3 13.3
2014-Apr-19 20:15 297 1 gusting 5 13.3
2014-Apr-19 20:00 300 0 gusting 4 13.9
2014-Apr-19 19:45 283 0 gusting 4 13.9
2014-Apr-19 19:30 261 1 gusting 5 13.9
2014-Apr-19 19:15 309 0 gusting 4 13.9
2014-Apr-19 19:00 315 1 gusting 6 14.4
2014-Apr-19 18:45 292 2 gusting 6 15.0
2014-Apr-19 18:30 311 3 gusting 8 15.6
2014-Apr-19 18:15 292 3 gusting 6 15.6
2014-Apr-19 18:00 327 2 gusting 6 16.1
2014-Apr-19 17:45 307 3 gusting 9 16.7
2014-Apr-19 17:30 301 3 gusting 10 16.1
2014-Apr-19 17:15 323 3 gusting 13 16.7
2014-Apr-19 17:00 306 4 gusting 9 16.7
2014-Apr-19 16:30 313 4 gusting 12 18.3
2014-Apr-19 16:15 321 4 gusting 13 18.9
2014-Apr-19 16:00 327 4 gusting 13 20.0
2014-Apr-19 15:45 295 4 gusting 9 20.6
2014-Apr-19 15:30 313 4 gusting 9 21.1
2014-Apr-19 15:00 281 3 gusting 10 21.7
2014-Apr-19 14:45 329 3 gusting 10 22.2
2014-Apr-19 14:30 303 3 gusting 9 22.2
2014-Apr-19 14:15 318 3 gusting 9 20.6
2014-Apr-19 14:00 326 4 gusting 11 20.6
2014-Apr-19 13:45 302 5 gusting 13 20.6
2014-Apr-19 13:30 336 4 gusting 9 21.7
2014-Apr-19 13:15 316 5 gusting 12 22.2
2014-Apr-19 13:00 334 4 gusting 12 22.8
2014-Apr-19 12:45 303 4 gusting 10 20.6